Torna al catalogo

OPS 4682 DEB

AttivoPO
NORAD 19113·DEBRIS·🇺🇸 United States

Lanciato Apr 3, 1965 da Vandenberg Space Force Base

Loading…

Prossimi Passaggi (prossime 24 ore)

TLE

AggiornatoSource: Space-Track

Epoca: Sep 11, 2026, 06:53 UTC

1 19113U 65027AQ  26254.28734823  .00000007  00000-0 -20916-5 0  9992
2 19113  90.2567  16.0897 0036195 190.8065 197.4305 13.06321172646203

Traccia OPS 4682 DEB in tempo reale con AllMySat

Download on the App Store